Torna al catalogo

OT-FOREST-16 SIWITASGOHT

AttivoScienzaSSO
NORAD 68998·PAYLOAD·🇺🇸 United States

Lanciato May 3, 2026 da Vandenberg Space Force Base

Loading…

Prossimi Passaggi (prossime 24 ore)

TLE

AggiornatoSource: Space-Track

Epoca: Sep 14, 2026, 11:00 UTC

1 68998U 26100U   26257.45843828  .00001228  00000-0  12380-3 0  9993
2 68998  97.7265 153.3018 0004730 104.9181 255.2562 14.92896236 20017

Traccia OT-FOREST-16 SIWITASGOHT in tempo reale con AllMySat

Download on the App Store